Location: Gabaston
(43.3667°N, 0.2000°W)
Time: 13:17:00
(UTC+00:00)

Daily predictions for brighter satellites

Satellite Brightness Start Highest point End
(mag) Time Altitude Azimuth Time Altitude Azimuth Time Altitude Azimuth
Resurs 01 Rocket 1.8 20:11:54 10° SSE 20:16:17 60° ENE 20:20:40 10° N
COSMOS 2406 4.2 20:14:06 10° SSE 20:18:46 26° ESE 20:23:27 10° NE
Cosmos 1833 Rocket 2.9 20:18:50 10° S 20:24:12 49° ESE 20:29:36 10° NE
H-2A R/B 2.1 20:23:02 10° NNE 20:27:31 82° ESE 20:32:02 10° SSW
Cosmos 1536 Rocket 3.7 20:26:12 10° S 20:30:24 52° E 20:34:39 10° NNE
Cosmos 1703 3.8 20:28:01 10° SSE 20:31:35 38° E 20:35:11 10° NNE
CARTOSAT-1 4.1 20:29:30 10° SE 20:33:35 43° ENE 20:37:40 10° N
Cosmos 1741 Rocket 4.2 20:29:30 10° NNW 20:34:48 63° ENE 20:40:03 10° SSE
USA 245 4.2 20:32:00 10° SE 20:35:25 29° ENE 20:38:18 10° N
Ariane Rocket 3.1 20:32:31 10° SSE 20:37:35 71° ENE 20:42:40 10° N
PSLV R/B 4.2 20:38:50 10° N 20:43:00 75° WNW 20:47:10 10° SSW
CZ-4B R/B 1.0 20:44:11 10° NNE 20:47:05 86° WNW 20:49:58 10° SSW
Terra 3.2 20:44:04 11° ESE 20:47:38 24° ENE 20:51:28 10° NNE
SPOT 3 Rocket 3.8 20:44:20 11° SSE 20:49:13 58° ENE 20:54:21 10° N
ATLAS 2AS CENTAUR R/B 3.7 20:43:21 10° NW 20:49:47 41° WSW 20:55:52 10° S
SPOT 5 3.5 20:46:56 13° SE 20:50:17 33° ENE 20:54:10 10° N
USA 276 4.4 20:49:53 10° NW 20:52:22 22° N 20:54:51 10° ENE
RESURS DK-1 2.5 20:49:10 10° NNW 20:53:19 74° WSW 20:56:54 13° SSE
Cosmos 1544 Rocket 4.4 20:49:44 10° NNW 20:53:55 48° W 20:58:05 10° SSW
Cosmos 1271 Rocket 4.0 20:52:05 10° NNW 20:55:47 39° W 20:59:25 10° SSW
Cosmos 1455 3.4 20:52:27 10° NNW 20:56:05 42° W 20:59:41 10° SSW
SL-24 R/B 4.4 20:52:27 10° S 20:56:52 81° WSW 21:01:57 10° NNW
Cosmos 1850 Rocket 4.1 20:55:15 10° NNW 21:00:26 76° WSW 21:05:09 12° SSE
Cosmos 1331 Rocket 4.0 20:56:00 10° SSW 21:01:18 83° ESE 21:06:37 10° NNE
Cosmos 2082 Rocket 2.6 20:57:05 10° S 21:02:24 41° ESE 21:07:43 10° NE
IRAS Rocket 4.2 20:58:09 10° NNE 21:03:46 84° ESE 21:09:18 10° SSW
Cosmos 2074 Rocket 4.0 20:58:57 10° N 21:05:15 88° E 21:11:20 11° S
Cosmos 2360 4.2 21:01:43 10° NNW 21:07:29 82° ENE 21:11:58 17° SSE
Helios 1A Rocket 3.5 21:04:55 18° SE 21:07:35 44° ENE 21:11:30 10° N
Cosmos 1328 4.2 21:05:03 17° SSE 21:07:51 44° E 21:11:40 10° NNE
Spot 2 Rocket 3.8 21:04:02 16° SE 21:07:57 56° ENE 21:12:57 10° N
Cosmos 2084 Rocket 3.4 21:07:24 10° NNW 21:11:19 66° NE 21:13:53 21° SE
Nadezhda 1 Rocket 3.9 21:07:04 10° S 21:13:04 69° E 21:19:07 10° NNE
GEOS 3 Rocket 4.0 21:09:16 15° SSE 21:13:21 57° WSW 21:18:24 10° NW
Lacrosse 5 4.1 21:11:42 10° W 21:14:41 16° WSW 21:17:39 10° SSW
Cosmos 1900 4.4 21:10:13 10° NW 21:15:24 81° WSW 21:18:57 20° SSE
Delta 2 Rocket 4.3 21:14:46 10° WSW 21:17:16 20° S 21:17:32 19° S
Cosmos 1295 Rocket 4.5 21:12:56 10° N 21:19:09 76° E 21:23:57 17° SSE
X-37B 0.7 21:22:11 10° W 21:24:53 45° SSW 21:25:27 38° SSE
ERS-1 Rocket 3.0 21:22:07 21° SSE 21:25:31 70° ENE 21:30:32 10° N
Cosmos 1892 3.7 21:26:26 25° ESE 21:27:25 29° E 21:30:43 10° NNE
Meteor 1-21 Rocket 4.3 21:24:18 10° SSW 21:29:53 78° W 21:35:38 10° N
Cosmos 1302 Rocket 3.9 21:28:12 10° SSW 21:33:24 78° ESE 21:38:36 10° NNE
Cosmos 2228 3.6 21:32:10 10° NNW 21:36:17 51° W 21:39:22 17° SSW
Cosmos 192 4.3 21:31:46 10° SSW 21:36:40 84° WNW 21:41:36 10° NNE
SL-8 R/B 4.3 21:32:40 10° WNW 21:37:11 42° SW 21:39:18 26° SSE
Cosmos 2154 Rocket 4.2 21:33:25 10° NNW 21:39:37 72° W 21:44:32 17° S
Cosmos 1892 Rocket 3.5 21:38:01 24° S 21:40:33 71° E 21:44:55 10° NNE
Cosmos 968 Rocket 3.5 21:38:28 10° NNW 21:43:42 80° ENE 21:46:30 28° SSE
Cosmos 1697 Rocket 3.3 21:40:48 10° NW 21:46:10 48° WSW 21:49:51 20° S
Cosmos 1980 Rocket 2.2 21:41:17 10° NNW 21:47:00 87° ENE 21:50:07 28° SSE
SL-16 R/B 3.6 21:44:42 10° N 21:49:32 28° NE 21:52:57 16° E
Cosmos 1408 2.3 21:48:45 44° SSE 21:49:38 68° E 21:53:04 10° NNE
Cosmos 2058 Rocket 3.2 21:47:13 10° N 21:51:37 62° E 21:53:20 35° SSE
ATLAS 5 CENTAUR R/B 1.1 21:50:51 30° SSW 21:52:29 63° ESE 21:56:28 10° NE
Resurs 01 Rocket 4.2 21:50:56 10° WSW 21:53:09 14° W 21:55:23 10° WNW
SL-8 Rocket 4.1 21:48:43 10° N 21:54:52 59° E 21:58:01 29° SSE
Cosmos 2369 3.8 21:49:43 10° NNW 21:55:27 73° WSW 21:58:31 28° S
CZ-2C R/B 3.8 21:51:08 10° N 21:55:40 74° WNW 21:58:48 19° SSW
USA 267 3.7 21:50:26 10° ENE 21:56:22 36° SE 21:59:31 24° S
In-Cosmos 22 Rocket 4.2 21:59:05 30° SSE 22:01:41 60° E 22:07:01 10° NNE
SJ 16-02 3.3 21:58:44 10° NNE 22:01:48 18° ENE 22:03:35 15° E
COSMOS 2406 4.2 21:57:12 10° SW 22:02:45 49° WNW 22:08:20 10° NNE
Cosmos 1825 2.3 22:08:00 48° ESE 22:08:20 50° E 22:11:58 10° NNE
Cosmos 1867 3.7 22:07:42 10° NW 22:13:08 66° WSW 22:15:18 36° S
Cosmos 2366 rocket 4.0 22:08:56 10° N 22:15:19 71° E 22:18:15 34° SSE
Cosmos 1869 3.4 22:14:01 10° N 22:17:52 56° E 22:18:25 50° ESE
Cosmos 2218 Rocket 4.0 22:15:20 10° N 22:21:47 80° E 22:24:42 35° SSE
ARIANE 5 R/B 3.1 22:21:46 34° SSW 22:23:22 52° W 22:27:41 10° NNW
Cosmos 2322 Rocket 3.3 22:18:31 10° N 22:23:44 36° NE 22:26:28 23° ESE
GP-B 3.1 22:20:39 10° N 22:25:06 83° W 22:26:26 45° S
Terra 2.8 22:22:57 24° SSW 22:25:10 39° W 22:29:38 10° NNW
Meteor 1-27 4.1 22:19:46 10° N 22:25:22 81° E 22:27:28 40° SSE
SPOT 5 4.5 22:26:10 15° SW 22:28:26 22° W 22:31:50 10° NW
USA 276 2.9 22:25:40 10° NW 22:28:35 45° NNE 22:28:42 44° NNE
SAR-Lupe-4 3.4 22:25:44 10° NNE 22:29:20 88° E 22:29:35 76° S
USA 234 4.5 22:24:22 10° E 22:30:18 38° NNE 22:36:14 10° NW
FALCON 9 DEB 3.1 22:27:29 10° NW 22:30:31 73° NNW 22:30:31 73° NNW
Cosmos 1959 Rocket 4.4 22:25:43 10° N 22:31:51 90° W 22:34:27 37° S
BREEZE-M DEB (TANK) 4.4 22:33:09 10° WNW 22:36:08 46° NNE 22:45:57 10° E
Cosmos 2278 3.9 22:31:40 10° NNW 22:37:20 64° WSW 22:39:18 40° S
Cosmos 1633 2.9 22:39:00 51° ENE 22:39:00 51° ENE 22:41:57 10° NNE
Cosmos 1992 Rocket 4.4 22:37:42 22° SW 22:40:58 61° WNW 22:46:11 10° NNE
Okean 1-7 Rocket 3.8 22:40:57 41° SW 22:42:19 65° W 22:46:49 10° N
Cosmos 1758 Rocket 3.7 22:42:24 52° ESE 22:42:43 53° E 22:47:00 10° NNE
Cosmos 2333 Rocket 4.0 22:39:53 10° N 22:44:24 23° NE 22:48:06 13° E
Cosmos 2082 Rocket 3.8 22:41:30 10° WSW 22:46:34 32° NW 22:51:40 10° N
Cosmos 1486 Rocket 4.2 22:43:31 10° NNW 22:48:41 63° WSW 22:50:04 45° SSW
ASTEX 1 4.0 22:44:09 10° N 22:49:00 51° W 22:51:10 30° SW
Cosmos 1606 3.4 22:50:45 10° N 22:54:21 42° ENE 22:54:21 42° ENE
Cosmos-2242 3.0 22:50:39 10° N 22:54:52 63° E 22:55:10 61° ESE
Cosmos 1812 Rocket 3.4 22:51:10 10° N 22:55:39 83° E 22:56:09 69° SSE
ADEOS Rocket 3.9 22:53:13 31° SE 22:56:46 55° ENE 23:04:17 10° N
Cosmos 1340 Rocket 4.2 22:58:42 26° ENE 22:58:42 26° ENE 23:01:29 10° NNE
Cosmos 2360 Rocket 3.0 22:52:53 10° NNW 22:58:17 42° ENE 23:00:31 29° ESE
Gbstr 26 Del rocket 2.9 22:59:00 70° ESE 22:59:00 70° ESE 23:03:34 10° ENE
Cosmos 1602 Rocket 3.7 23:05:35 54° WSW 23:06:15 62° W 23:10:33 10° N
Cosmos 1821 Rocket 3.9 23:03:15 10° N 23:09:30 89° E 23:11:22 48° S
Cosmos 44 3.5 23:14:09 48° E 23:14:09 48° E 23:18:01 10° NE
Cosmos 1833 4.4 23:14:26 47° SE 23:15:00 49° ESE 23:20:23 10° NE
Cosmos 1354 Rocket 4.0 23:13:22 10° NNW 23:18:39 71° WSW 23:19:33 58° SSW
Cosmos 2237 4.1 23:15:24 10° NNW 23:21:11 87° WSW 23:22:30 55° SSE
ALOS 2 2.5 23:21:37 71° ESE 23:21:53 74° ENE 23:26:16 10° N
CENTAUR R/B 3.9 23:22:31 20° ESE 23:22:31 20° ESE 23:26:53 10° ENE
Spot 4 3.8 23:21:49 62° SSW 23:22:25 70° WSW 23:27:13 10° NNW
ERS-2 3.7 23:20:46 10° NE 23:22:56 26° ENE 23:22:56 26° ENE
Cosmos 1503 Rocket 4.4 23:22:01 10° NNW 23:27:05 48° WSW 23:27:51 45° SW
Cosmos 2058 2.8 23:29:58 86° NNW 23:29:58 86° NNW 23:34:06 10° N
Nadezhda 3 Rocket 4.0 23:28:02 45° SSW 23:30:02 75° W 23:36:13 10° N
Cosmos 1980 Rocket 4.3 23:27:35 10° WNW 23:30:09 13° W 23:31:53 12° WSW
COSMOS 2428 4.4 23:26:11 10° N 23:30:55 26° NE 23:34:37 14° E
Cosmos 1777 Rocket 3.9 23:27:00 10° NNW 23:32:19 83° WSW 23:33:07 64° S
H-2A R/B 3.4 23:28:32 10° NNE 23:32:45 82° WNW 23:32:48 82° W
Cosmos 1953 Rocket 3.6 23:33:03 67° E 23:33:03 67° E 23:37:26 10° NNE
SL-16 R/B 2.5 23:28:25 10° NW 23:33:53 49° WSW 23:34:48 45° SW
Cosmos 2219 Rocket 3.4 23:28:47 10° N 23:34:01 36° NE 23:36:41 24° ESE
ATLAS 5 CENTAUR R/B 4.1 23:34:55 10° WNW 23:37:30 17° NNW 23:40:19 10° N
USA 267 3.5 23:33:08 10° NE 23:39:39 71° NW 23:46:08 10° WSW
SJ 16-02 1.8 23:36:21 10° NNW 23:40:31 48° W 23:40:31 48° W
SL-4 R/B 2.8 23:40:05 37° NW 23:40:43 42° NNW 23:44:12 10° NE
Cosmos 1825 Rocket 3.7 23:41:10 61° W 23:41:22 62° W 23:45:41 10° N
Meteor 2-2 Rocket 4.3 23:36:40 10° N 23:42:43 87° W 23:44:11 55° S
Cosmos 2221 2.6 23:47:51 10° N 23:52:11 64° E 23:52:14 64° E
